Weather History for Columbus AFB, MS

Change the Weather History Date:

Sunday, April 29, 2012

  Actual Average Record
Temperature  
Mean Temperature 72 °F -  
Max Temperature 85 °F 75 °F 85 °F (2012)
Min Temperature 58 °F 54 °F 45 °F (2008)
Cooling Degree Days 6    
Growing Degree Days 22 (Base 50)    
Moisture  
Dew Point 61 °F    
Average Humidity 75    
Maximum Humidity 100    
Minimum Humidity 42    
Precipitation  
Precipitation 0.00 in - - ()
Sea Level Pressure  
Sea Level Pressure 30.09 in    
Wind  
Wind Speed 3 mph (South)    
Max Wind Speed 8 mph    
Max Gust Speed -    
Visibility 10 miles    
Events      
Averages and records for this station are not official NWS values.
T = Trace of Precipitation, MM = Missing Value Source: NWS Daily Summary

Daily Weather History Graph

Daily Weather History Graph

Search for Another Location

Airport:

Trip Planner

Search our weather history database for the weather conditions in past years. The results will help you decide how hot, cold, wet, or windy it might be!

Date:

Astronomy

Apr. 29, 2012 Rise Set
Actual Time 6:06 AM CDT 7:35 PM CDT
Civil Twilight 5:40 AM CDT 8:02 PM CDT
Nautical Twilight 5:08 AM CDT 8:34 PM CDT
Astronomical Twilight 4:35 AM CDT 9:07 PM CDT
Moon 12:48 PM CDT (4/29) 1:35 AM CDT (4/29)
Length of Visible Light 14h 22m
Length of Day
13h 29m
First Quarter, 53% of the Moon is Illuminated
Apr 29
First Quarter
May 5
Full
May 12
Last Quarter
May 20
New
May 28
First Quarter

Hourly Weather History & Observations

Time (CDT) Temp. Heat Index Dew Point Humidity Pressure Visibility Wind Dir Wind Speed Gust Speed Precip Events Conditions
12:16 AM 62.6 °F - 62.6 °F 100% 30.06 in 4.0 mi Calm Calm - N/A   Clear
12:23 AM 62.6 °F - 62.6 °F 100% 30.07 in 5.0 mi Calm Calm - N/A   Clear
12:55 AM 62.4 °F - 62.2 °F 99% 30.08 in 10.0 mi SSE 4.6 mph - N/A   Clear
1:55 AM 61.7 °F - 60.1 °F 94% 30.08 in 10.0 mi SSE 5.8 mph - N/A   Clear
2:55 AM 61.3 °F - 58.8 °F 91% 30.08 in 10.0 mi Calm Calm - N/A   Clear
3:55 AM 58.8 °F - 57.7 °F 96% 30.09 in 10.0 mi Calm Calm - N/A   Clear
4:55 AM 59.7 °F - 59.7 °F 100% 30.09 in 10.0 mi SE 4.6 mph - N/A   Clear
5:55 AM 58.8 °F - 58.8 °F 100% 30.09 in 10.0 mi SSE 6.9 mph - N/A   Clear
6:55 AM 59.5 °F - 59.5 °F 100% 30.11 in 9.0 mi Calm Calm - N/A   Clear
7:55 AM 67.8 °F - 63.1 °F 85% 30.13 in 10.0 mi South 4.6 mph - N/A   Clear
8:55 AM 72.0 °F - 64.4 °F 77% 30.13 in 10.0 mi WSW 3.5 mph - N/A   Clear
9:55 AM 74.5 °F - 64.9 °F 72% 30.13 in 10.0 mi SSW 5.8 mph - N/A   Clear
10:55 AM 78.3 °F - 63.1 °F 60% 30.13 in 10.0 mi SSW 6.9 mph - N/A   Partly Cloudy
11:55 AM 79.9 °F - 61.0 °F 52% 30.12 in 10.0 mi South 6.9 mph - N/A   Partly Cloudy
12:55 PM 81.0 °F 81.8 °F 61.5 °F 51% 30.10 in 10.0 mi SW 6.9 mph - N/A   Partly Cloudy
1:55 PM 82.4 °F 82.9 °F 60.6 °F 48% 30.09 in 10.0 mi Variable 6.9 mph - N/A   Clear
2:55 PM 84.6 °F 84.8 °F 60.8 °F 45% 30.08 in 10.0 mi SSW 8.1 mph - N/A   Clear
3:55 PM 84.6 °F 84.2 °F 59.4 °F 42% 30.06 in 10.0 mi South 8.1 mph - N/A   Clear
4:55 PM 85.1 °F 85.0 °F 60.3 °F 43% 30.06 in 10.0 mi South 6.9 mph - N/A   Clear
5:55 PM 84.9 °F 84.8 °F 60.3 °F 43% 30.06 in 10.0 mi Calm Calm - N/A   Clear
6:55 PM 80.2 °F 81.3 °F 61.5 °F 53% 30.05 in 10.0 mi Calm Calm - N/A   Clear
7:55 PM 74.3 °F - 64.4 °F 71% 30.06 in 10.0 mi Calm Calm - N/A   Clear
8:55 PM 71.6 °F - 63.7 °F 76% 30.08 in 9.0 mi Calm Calm - N/A   Scattered Clouds
9:55 PM 68.7 °F - 63.3 °F 83% 30.09 in 10.0 mi Calm Calm - N/A   Clear
10:55 PM 66.6 °F - 62.6 °F 87% 30.09 in 10.0 mi Calm Calm - N/A   Clear
11:55 PM 63.9 °F - 61.3 °F 91% 30.09 in 10.0 mi Calm Calm - N/A   Clear